Theta_e
317 323 327 327 323 319 324 324 331 345 345 347 343 343 341 343 345 344 340 340 353 346 343 339 337 337 337 335 333 329 327 325 325 329 332 332 331 328 327 326 323 324 327 328 326 327 329 333 337
317 325 326 325 320 323 323 322 338 338 343 345 346 345 346 345 343 344 339 343 351 347 343 341 339 338 336 333 332 329 328 326 323 325 327 329 330 328 328 327 325 323 325 326 326 325 329 331 334
322 327 325 319 319 326 326 322 326 340 346 346 349 343 353 352 349 345 341 343 338 346 346 342 340 339 337 333 332 330 328 326 325 323 324 325 326 326 327 329 328 326 324 324 324 324 328 331 332
323 325 329 326 329 327 325 318 321 329 339 339 331 324 332 336 344 351 346 337 336 340 347 343 342 340 339 336 335 332 330 329 328 326 325 323 322 323 326 328 329 329 327 325 325 329 331 330 331
323 323 324 329 332 328 321 321 322 323 324 325 325 322 321 326 339 348 349 341 330 340 348 345 343 341 340 339 337 335 334 334 333 332 329 328 326 324 322 323 327 330 330 329 327 326 328 329 331
320 318 316 319 324 324 320 320 321 321 322 323 323 322 320 327 331 347 348 347 336 338 343 349 344 342 341 341 338 338 336 336 335 336 335 332 330 329 327 324 323 325 328 329 329 328 327 325 326
317 312 316 318 318 319 320 321 319 319 320 322 323 319 319 323 332 336 350 349 352 351 351 349 344 343 342 342 341 339 339 338 338 339 338 337 335 333 331 330 327 325 324 325 326 327 327 326 325
319 310 315 315 316 319 318 320 321 321 320 322 321 320 318 324 322 326 345 353 351 351 351 348 345 346 345 345 344 342 342 341 341 341 340 340 339 337 335 333 332 329 327 325 324 325 325 325 325
319 311 312 317 318 318 318 318 319 319 319 319 320 318 321 326 324 328 347 356 351 348 345 339 341 331 334 339 341 346 342 343 344 346 345 341 338 342 340 338 336 333 331 332 328 330 332 331 327
314 310 313 314 317 316 317 318 319 318 318 318 318 319 322 321 321 329 349 340 337 330 326 325 325 324 324 324 326 329 343 350 347 347 346 346 345 340 344 344 340 337 336 341 342 342 343 342 340
312 312 315 318 318 318 317 318 318 317 317 318 319 319 322 322 322 322 336 344 341 334 324 323 323 322 322 321 320 321 323 338 341 333 339 342 340 341 331 344 342 340 339 342 343 341 341 342 342
318 316 318 318 318 319 317 318 317 318 318 319 319 319 321 322 322 321 320 321 322 324 323 321 318 317 316 316 316 317 317 317 318 323 324 326 335 344 339 343 345 342 340 339 341 341 339 341 341
317 317 318 318 318 318 318 317 317 318 319 319 319 320 321 322 323 324 324 324 324 323 323 321 319 317 318 317 317 316 316 317 317 317 318 321 324 341 343 342 345 345 342 343 343 344 343 343 342
318 318 317 317 317 318 318 317 318 318 319 319 318 321 323 322 324 325 325 324 324 322 321 319 318 318 319 319 319 319 316 315 316 319 319 319 321 325 336 338 342 339 342 341 338 338 340 343 339
317 317 313 315 317 317 318 317 317 319 318 319 317 323 325 325 325 325 325 324 323 322 321 320 319 320 321 321 319 319 318 317 317 316 317 320 321 321 324 332 335 327 335 343 339 337 336 335 334
315 312 314 313 314 316 316 315 316 320 319 318 317 323 325 325 325 325 324 324 324 323 323 323 322 322 322 320 319 318 318 315 314 315 316 315 321 322 323 324 326 329 335 337 341 339 335 334 334
311 316 316 317 315 316 315 316 317 318 318 319 317 324 325 325 325 325 324 324 325 325 325 324 323 322 320 319 319 318 318 316 315 316 317 315 316 322 326 325 322 324 331 340 341 336 335 333 332
317 317 317 317 317 315 315 315 316 318 317 317 317 324 325 325 326 326 326 326 327 326 326 324 321 318 318 318 317 316 315 315 316 316 316 319 319 325 329 329 327 322 327 337 338 339 337 331 332
316 316 318 317 318 317 315 315 318 318 317 318 323 323 322 323 324 325 324 326 327 326 322 318 317 317 317 316 316 315 315 314 317 320 321 323 327 327 329 332 332 331 324 337 337 337 336 333 329
316 317 317 316 317 316 315 315 318 318 317 317 318 318 321 323 322 322 322 322 319 318 317 318 317 317 316 316 315 316 316 315 316 319 322 325 326 329 330 331 332 333 331 333 333 336 334 333 331
317 316 318 318 317 317 315 315 316 317 318 317 318 319 319 319 319 318 318 318 318 318 317 317 317 316 315 315 315 314 314 314 313 317 321 324 325 326 327 330 331 332 332 332 333 334 334 331 327
317 317 317 318 316 316 314 314 317 317 317 317 317 317 317 317 317 317 317 317 317 316 317 317 316 316 316 315 315 315 314 314 314 314 316 320 323 325 327 326 328 330 331 333 332 331 330 328 326
318 317 316 317 315 314 315 313 315 316 318 318 318 317 317 317 317 317 315 313 312 313 314 314 314 315 316 317 316 315 315 315 314 313 312 310 316 319 321 326 327 326 329 329 330 329 327 326 324
316 316 312 311 311 315 316 313 312 316 316 317 318 317 317 316 314 314 313 312 312 312 312 313 314 315 316 316 316 316 316 315 314 313 312 309 309 312 317 316 322 326 326 325 326 326 325 324 323
313 312 313 315 314 314 314 313 311 315 315 316 317 317 316 315 314 313 313 313 312 312 313 313 315 315 316 315 314 315 315 313 313 312 311 310 310 309 312 316 314 321 325 325 323 322 322 323 324
315 312 312 318 316 315 313 315 315 314 316 318 317 317 316 314 313 313 313 313 313 313 314 314 315 314 315 313 312 313 313 312 310 309 310 309 309 309 312 315 316 315 322 324 323 321 320 320 319
317 315 313 314 312 313 312 315 313 316 316 317 317 316 315 314 313 313 314 314 314 314 314 314 313 313 312 311 311 312 311 310 309 309 309 309 308 310 312 313 313 315 316 321 322 322 321 321 321
315 314 314 311 318 317 313 314 313 315 315 314 315 315 315 315 314 314 314 315 315 314 313 312 311 310 309 307 308 309 308 307 307 307 308 308 309 313 314 313 312 312 315 317 318 319 320 320 319
312 312 310 310 311 312 314 313 311 312 312 313 315 317 316 315 315 315 314 314 312 311 311 310 310 308 307 308 308 307 307 307 307 308 308 309 311 314 314 312 312 313 314 315 315 316 316 317 316
313 313 310 311 313 310 309 311 310 312 313 316 316 315 314 313 312 312 312 311 310 309 309 309 309 307 308 308 307 306 307 307 308 309 310 312 311 314 312 312 312 312 311 312 312 313 313 312 312
Wind_Speed
10 12 7 2 4 5 2 4 1 5 4 11 24 5 5 5 2 2 5 9 4 9 8 7 5 5 4 4 4 4 5 6 7 7 6 6 6 6 6 6 7 9 11 11 11 11 11 11 9
8 10 2 2 5 4 4 3 6 6 11 15 17 9 3 1 4 6 11 9 3 4 9 9 8 7 6 5 3 3 4 5 6 6 6 6 6 7 7 7 8 9 10 11 12 12 13 12 12
8 6 2 4 3 1 1 1 1 3 18 22 7 6 3 2 5 6 16 12 11 2 9 11 9 7 5 3 3 3 2 2 2 3 5 5 6 6 7 8 8 9 10 12 12 13 12 12 12
7 3 5 5 2 2 1 4 6 6 7 8 16 7 11 7 1 6 14 16 11 9 11 13 11 7 5 4 3 2 0 2 2 2 2 4 5 6 7 8 9 10 10 12 13 13 13 13 12
5 4 5 4 3 4 0 3 8 6 5 13 18 9 7 12 7 8 14 4 9 12 8 8 8 7 6 6 4 3 2 2 3 4 4 5 5 6 7 8 9 11 11 11 11 13 14 15 14
3 3 5 1 5 1 2 11 8 5 13 17 16 12 8 13 11 10 11 4 5 4 8 9 9 8 7 7 7 6 5 4 4 5 7 7 8 8 8 9 10 12 13 13 13 14 14 14 15
5 4 4 2 3 5 2 14 5 8 4 2 11 6 11 17 13 7 5 3 7 8 3 7 8 6 7 8 8 7 7 7 8 8 10 11 11 12 12 11 11 12 13 14 14 15 15 14 15
3 4 2 2 1 1 6 6 14 9 5 16 6 3 8 21 17 14 13 8 6 5 7 4 1 1 5 7 8 9 11 11 11 12 13 12 15 15 16 15 15 14 14 15 15 15 15 15 16
1 4 1 2 2 3 9 5 11 18 21 19 21 17 25 22 18 18 20 13 13 11 12 10 7 6 10 4 8 9 9 14 14 15 16 15 18 19 18 20 18 17 17 17 15 13 13 14 16
4 4 7 4 3 2 1 4 10 8 17 18 20 21 29 23 16 22 26 24 18 16 12 8 7 9 13 14 12 11 11 10 13 17 20 21 23 20 20 22 22 20 19 16 13 14 13 13 13
3 5 5 2 4 7 4 3 4 13 2 12 21 23 23 20 22 21 22 18 14 9 4 2 8 13 17 18 18 17 14 15 17 19 21 22 23 20 20 22 22 20 20 21 18 14 14 13 12
2 2 8 6 5 4 3 2 3 3 7 13 15 21 22 22 21 16 12 10 7 6 7 12 17 16 13 11 13 16 18 19 22 23 22 23 23 23 20 23 24 23 21 21 21 19 17 17 17
3 2 4 5 7 2 1 2 2 4 10 14 16 22 24 22 23 21 20 16 11 5 9 15 17 17 19 20 21 20 21 22 23 23 26 27 25 24 23 24 27 28 28 28 26 26 24 22 20
2 3 1 2 1 3 1 2 3 3 14 17 15 22 25 24 25 26 22 19 16 14 14 11 11 16 18 22 25 23 23 24 25 26 26 26 26 27 27 28 29 31 31 31 29 26 26 24 21
1 2 5 4 2 1 3 4 3 19 4 19 11 23 24 23 23 22 20 17 12 12 12 13 14 13 15 19 22 23 25 28 30 28 27 29 30 29 29 31 32 29 31 34 36 29 28 25 22
5 6 5 8 7 5 3 8 4 15 14 12 8 26 24 21 19 16 14 14 14 14 12 11 11 13 16 21 26 30 32 36 33 33 30 29 30 31 31 31 32 31 31 36 38 33 28 25 23
7 1 2 5 7 1 6 4 9 25 15 12 10 27 25 24 18 15 15 14 13 11 10 11 11 15 20 25 28 34 36 39 41 34 34 32 32 32 33 34 33 32 32 33 33 25 28 24 25
1 4 3 4 7 6 6 8 17 26 14 10 9 24 24 19 14 12 12 11 12 9 8 11 18 23 24 25 29 34 35 37 40 38 36 32 32 30 30 32 31 32 32 31 29 29 26 22 20
6 5 2 2 3 2 6 6 13 21 28 22 31 27 22 17 14 12 11 10 9 7 11 17 20 22 25 30 34 35 36 34 26 27 28 28 28 28 23 24 24 26 30 29 27 29 25 22 21
5 3 3 4 4 4 8 10 6 21 21 22 28 33 32 30 26 23 19 14 10 12 13 14 15 19 23 27 29 26 25 24 22 23 25 24 26 27 24 22 18 21 21 26 29 28 28 27 21
3 5 2 3 3 1 4 6 7 9 23 28 28 28 26 21 18 15 12 9 7 8 11 15 18 21 23 22 23 23 24 26 26 23 21 22 22 26 20 16 16 12 17 18 25 28 29 26 22
3 2 1 2 4 1 4 3 3 3 8 12 17 19 17 15 12 10 9 10 13 15 14 16 19 16 17 19 21 22 25 25 24 26 24 22 23 24 21 17 10 9 7 12 20 24 21 21 17
3 1 3 2 3 3 3 4 4 3 3 2 3 8 9 7 6 8 11 13 15 17 18 18 14 14 14 13 17 21 23 23 24 24 24 26 24 26 25 18 14 9 10 10 10 10 9 11 13
3 3 7 5 3 2 3 4 4 4 6 3 3 6 6 5 5 8 12 15 18 19 18 16 15 11 14 14 15 16 19 22 25 28 29 29 29 29 25 22 18 13 9 9 13 15 16 16 21
7 7 4 5 5 5 1 1 6 4 5 8 12 10 5 3 3 9 14 18 19 18 17 18 19 18 18 18 19 18 19 21 23 26 30 32 33 32 29 24 18 15 14 7 7 8 10 14 15
3 5 5 4 3 5 7 5 4 6 5 10 10 7 3 4 9 13 15 16 17 18 16 17 17 17 18 21 21 20 22 25 28 29 30 32 32 31 26 24 19 16 17 16 11 10 13 15 25
2 1 2 4 3 2 3 3 4 4 3 8 10 4 1 5 8 10 11 12 13 15 16 13 17 21 26 30 34 32 30 30 32 30 31 32 30 27 21 21 19 19 16 21 23 23 25 19 17
5 3 2 3 2 4 4 3 5 5 8 7 5 4 2 4 7 10 11 13 13 14 18 21 23 28 36 39 34 34 36 35 32 32 30 28 24 19 17 19 19 18 17 17 21 22 21 21 18
5 4 5 4 4 3 2 5 2 5 5 7 7 5 3 6 9 11 12 11 17 21 26 31 32 33 37 35 32 35 36 30 26 26 24 21 18 16 16 16 16 14 13 13 14 14 16 14 14
3 4 5 4 5 2 4 6 7 3 12 13 7 1 2 4 6 9 13 19 26 33 32 32 31 37 31 32 36 40 32 23 20 21 18 14 13 15 13 11 12 13 10 7 7 6 7 6 5
Wind_Direction
357 349 359 68 47 60 12 34 171 101 153 182 165 156 186 145 169 163 91 110 123 172 172 175 176 174 182 189 191 182 179 177 181 184 179 172 169 172 182 183 183 187 188 191 195 202 206 210 213
352 360 49 63 76 44 338 292 144 198 179 179 171 150 148 100 92 111 128 84 48 195 184 191 187 185 197 186 193 200 190 179 179 186 190 192 190 186 188 192 190 192 198 204 206 207 208 214 220
347 19 58 87 104 112 29 56 107 95 142 152 163 46 33 19 26 114 114 90 56 285 201 191 198 203 203 192 192 194 189 179 193 194 201 210 209 208 203 204 203 201 204 208 212 213 220 225 231
357 65 60 70 346 282 177 315 153 154 154 132 110 72 78 87 96 134 134 148 329 279 201 198 196 207 238 220 209 228 329 23 357 299 256 237 231 225 222 218 218 222 218 213 214 216 223 229 234
11 73 57 77 291 261 194 102 163 139 129 101 114 128 85 70 106 125 153 360 329 178 212 217 205 212 237 253 249 259 293 334 337 321 301 296 290 272 254 243 235 236 238 239 235 230 230 234 235
50 75 63 51 255 325 349 110 125 109 126 114 106 96 75 85 94 137 165 39 34 206 207 219 206 218 237 257 258 268 282 294 294 303 304 295 290 288 280 269 259 250 248 248 247 250 251 250 251
93 75 181 230 270 336 146 126 142 139 118 81 121 98 93 102 103 116 170 99 45 48 133 220 211 244 268 276 270 270 280 287 290 297 295 296 293 287 284 279 273 269 266 262 258 257 258 259 259
60 89 55 254 314 357 356 125 125 132 124 115 57 112 105 119 106 115 145 133 78 110 142 159 142 328 296 292 302 301 296 291 290 297 297 294 292 289 285 278 275 271 268 267 266 264 266 269 271
141 65 153 288 109 332 9 79 68 112 105 98 105 90 122 109 112 115 141 128 128 111 105 102 87 36 11 310 297 298 287 282 281 286 293 295 305 294 287 285 278 273 267 265 265 268 268 269 268
105 110 215 210 153 151 143 103 147 111 103 105 109 110 128 133 124 115 133 127 125 111 103 77 43 6 348 335 328 324 301 280 274 290 293 295 294 292 285 284 278 268 262 261 257 261 263 267 269
139 180 194 186 147 151 128 79 98 133 129 164 145 138 134 126 125 126 127 135 140 144 132 3 337 328 321 311 303 303 303 298 290 293 288 288 290 282 272 275 274 270 264 254 250 253 259 268 273
184 236 159 172 166 118 127 86 84 163 196 174 167 155 153 142 140 144 151 150 146 135 81 45 31 20 8 347 325 325 323 315 296 290 287 285 285 281 265 269 274 267 266 253 254 255 257 262 268
106 251 188 147 141 132 58 120 208 235 195 179 166 164 160 155 150 144 141 136 132 109 38 24 11 19 26 19 9 355 341 331 323 312 293 292 283 273 265 268 269 273 269 260 260 260 257 263 264
132 128 288 276 216 179 145 300 338 38 203 196 189 168 164 165 153 139 127 112 95 83 73 54 23 25 22 19 16 10 2 349 336 325 315 297 290 279 271 261 264 271 271 270 265 264 263 263 272
94 55 359 313 253 352 154 2 26 360 228 215 165 166 159 153 145 131 118 100 81 72 64 50 42 27 14 10 7 6 359 354 343 335 323 314 298 282 272 267 259 262 263 261 259 259 262 265 268
42 49 40 304 348 22 88 270 281 351 348 254 130 164 156 147 136 114 96 81 77 72 77 65 39 17 4 358 358 349 343 340 341 336 328 319 310 298 283 271 266 261 272 262 257 256 264 263 265
7 85 22 335 20 99 56 292 302 349 344 288 162 165 151 138 122 100 88 88 96 95 81 53 25 0 355 351 345 339 334 334 335 335 334 325 315 304 293 284 272 264 266 270 262 247 261 264 260
236 36 41 59 326 51 16 347 351 353 337 305 203 147 134 124 116 120 111 104 106 90 48 17 7 358 352 345 340 335 337 338 335 331 330 324 317 311 298 290 282 268 261 262 257 250 253 249 249
103 97 115 223 337 68 43 27 7 1 37 80 108 113 97 95 98 99 106 122 118 76 24 10 357 348 342 339 335 334 331 335 336 332 332 331 331 322 309 300 284 272 258 257 254 257 251 244 251
80 94 348 290 322 115 88 38 17 30 44 63 90 100 101 101 95 91 90 87 58 29 10 355 348 347 343 339 342 341 338 341 341 338 342 344 343 336 325 320 305 268 258 254 253 258 256 252 241
62 123 197 220 326 23 105 39 8 24 50 66 79 100 100 97 99 93 83 62 32 13 360 353 351 345 346 354 351 345 344 351 346 344 353 350 345 337 330 320 316 300 265 254 251 253 260 252 237
107 261 163 342 48 251 43 253 9 26 39 44 80 90 97 96 92 79 53 23 4 353 348 351 352 1 359 352 353 352 350 352 352 350 339 345 350 345 335 337 316 308 306 251 247 253 236 238 222
159 213 11 330 123 89 351 80 244 144 58 344 60 99 102 93 62 31 19 6 354 348 345 348 353 348 345 342 351 350 347 349 350 349 348 351 339 341 338 341 332 316 255 226 209 218 227 205 210
107 37 39 52 70 49 214 127 262 190 178 201 215 158 131 94 54 21 12 11 6 358 352 345 338 335 327 338 335 337 336 337 338 339 340 345 348 336 329 334 337 310 302 271 251 234 226 224 233
65 49 353 357 5 229 13 19 236 223 190 177 186 174 156 114 33 17 8 1 1 3 355 344 331 330 325 332 334 325 324 330 333 334 333 334 337 336 327 322 325 316 291 266 226 245 249 267 256
61 136 149 250 230 254 347 263 249 218 166 176 183 180 159 36 20 13 10 7 360 350 339 324 321 323 323 324 325 321 317 318 320 321 323 326 327 327 317 312 311 312 293 270 264 245 237 280 281
154 33 187 132 28 40 251 314 358 67 121 191 201 199 100 32 16 1 356 350 335 324 325 319 320 323 325 323 317 311 308 311 312 313 313 316 319 318 310 309 308 296 292 269 264 278 263 283 285
102 163 13 12 255 273 294 284 238 223 222 218 204 205 221 352 354 357 340 326 316 320 327 327 326 322 322 321 316 311 314 310 308 306 306 305 310 310 309 308 305 301 287 283 272 274 274 273 281
3 13 45 113 127 204 307 273 301 272 223 163 176 204 264 329 321 329 335 328 328 329 325 322 315 319 322 315 312 318 317 308 303 309 299 294 297 304 310 307 317 306 306 295 286 286 279 281 289
104 107 96 98 290 238 162 264 343 72 118 143 165 203 299 338 348 333 330 329 326 323 318 314 312 320 313 314 316 321 319 317 311 309 308 291 300 298 303 312 308 306 301 303 310 311 309 311 327